When you browse on this site, cookies collect data to enhance your experience and personalize the content and advertising you see.
Visit our Privacy Policy to learn more. By continuing to use the site, you agree to this use of cookies and data.
  • In France
  • List of Countries
  • For 7 days
  • Water Temperature
  • Weather Map
  • Weather Widgets
  • user-avatar
    Login

    Hourly Weather Baden-Baden

    Today, 9 April, Thursday

    Time Temperature Precipitation Wind Pressure Humidity
    00:00 +12°C° 0 mm 1 mps 735 mmHg 61%
    01:00 +12°C° 0 mm 1 mps 735 mmHg 62%
    02:00 +12°C° 0 mm 1 mps 735 mmHg 63%
    03:00 +11°C° 0 mm 1 mps 734 mmHg 64%
    04:00 +11°C° 0 mm 1 mps 734 mmHg 65%
    05:00 +11°C° 0 mm 1 mps 734 mmHg 66%
    06:00 +12°C° 0 mm 1 mps 735 mmHg 67%
    07:00 +12°C° 0 mm 1 mps 735 mmHg 67%
    08:00 +14°C° 0 mm 1 mps 735 mmHg 61%
    09:00 +16°C° 0 mm 1 mps 735 mmHg 55%
    10:00 +20°C° 0 mm 1 mps 736 mmHg 48%
    11:00 +20°C° 0 mm 1 mps 736 mmHg 45%
    12:00 +21°C° 0 mm 1 mps 735 mmHg 42%
    13:00 +21°C° 0 mm 2 mps 735 mmHg 39%
    14:00 +21°C° 0 mm 2 mps 735 mmHg 39%
    15:00 +21°C° 0 mm 2 mps 735 mmHg 40%
    16:00 +21°C° 0 mm 2 mps 735 mmHg 40%
    17:00 +19°C° 0 mm 2 mps 735 mmHg 46%
    18:00 +18°C° 0 mm 1 mps 735 mmHg 51%
    19:00 +16°C° 0 mm 1 mps 735 mmHg 57%
    20:00 +15°C° 0 mm 1 mps 735 mmHg 58%
    21:00 +14°C° 0 mm 1 mps 735 mmHg 60%
    22:00 +13°C° 0 mm 1 mps 736 mmHg 61%
    23:00 +12°C° 0 mm 1 mps 736 mmHg 64%

    Tomorrow, 10 April, Friday

    Time Temperature Precipitation Wind Pressure Humidity
    00:00 +12°C° 0 mm 1 mps 736 mmHg 67%
    01:00 +12°C° 0 mm 1 mps 736 mmHg 69%
    02:00 +11°C° 0 mm 1 mps 736 mmHg 71%
    03:00 +11°C° 0 mm 1 mps 735 mmHg 73%
    04:00 +10°C° 0 mm 1 mps 735 mmHg 75%
    05:00 +11°C° 0 mm 1 mps 736 mmHg 75%
    06:00 +11°C° 0 mm 1 mps 736 mmHg 75%
    07:00 +11°C° 0 mm 1 mps 736 mmHg 75%
    08:00 +13°C° 0 mm 2 mps 736 mmHg 69%
    09:00 +15°C° 0 mm 2 mps 736 mmHg 63%
    10:00 +17°C° 0 mm 2 mps 736 mmHg 57%
    11:00 +18°C° 0 mm 3 mps 736 mmHg 54%
    12:00 +19°C° 0 mm 3 mps 736 mmHg 51%
    13:00 +20°C° 0 mm 3 mps 736 mmHg 49%
    14:00 +20°C° 0 mm 3 mps 735 mmHg 48%
    15:00 +20°C° 0 mm 3 mps 735 mmHg 48%
    16:00 +20°C° 0 mm 3 mps 734 mmHg 48%
    17:00 +18°C° 0 mm 2 mps 734 mmHg 54%
    18:00 +17°C° 0 mm 2 mps 734 mmHg 61%
    19:00 +15°C° 0 mm 2 mps 734 mmHg 68%
    20:00 +14°C° 0 mm 2 mps 734 mmHg 69%
    21:00 +13°C° 0 mm 2 mps 735 mmHg 71%
    22:00 +12°C° 0 mm 1 mps 735 mmHg 72%
    23:00 +12°C° 0 mm 1 mps 735 mmHg 73%

    Day after tomorrow, 11 April, Saturday

    Time Temperature Precipitation Wind Pressure Humidity
    00:00 +11°C° 0 mm 1 mps 735 mmHg 75%
    01:00 +11°C° 0 mm 1 mps 735 mmHg 76%
    02:00 +10°C° 0 mm 1 mps 735 mmHg 77%
    03:00 +10°C° 0 mm 1 mps 735 mmHg 78%
    04:00 +10°C° 0 mm 1 mps 735 mmHg 80%
    05:00 +10°C° 0 mm 1 mps 735 mmHg 79%
    06:00 +10°C° 0 mm 1 mps 735 mmHg 79%
    07:00 +11°C° 0 mm 1 mps 735 mmHg 78%
    08:00 +13°C° 0 mm 1 mps 735 mmHg 72%
    09:00 +15°C° 0 mm 1 mps 735 mmHg 65%
    10:00 +17°C° 0 mm 2 mps 735 mmHg 59%
    11:00 +18°C° 0 mm 2 mps 735 mmHg 56%
    12:00 +19°C° 0 mm 2 mps 735 mmHg 53%
    13:00 +20°C° 0 mm 2 mps 735 mmHg 50%
    14:00 +20°C° 0 mm 2 mps 734 mmHg 50%
    15:00 +20°C° 0 mm 2 mps 734 mmHg 49%
    16:00 +20°C° 0 mm 2 mps 733 mmHg 49%
    17:00 +19°C° 0 mm 2 mps 733 mmHg 55%
    18:00 +17°C° 0 mm 2 mps 733 mmHg 62%
    19:00 +15°C° 0 mm 2 mps 732 mmHg 68%
    20:00 +14°C° 0 mm 2 mps 732 mmHg 69%
    21:00 +13°C° 0 mm 1 mps 732 mmHg 70%
    22:00 +12°C° 0 mm 1 mps 732 mmHg 70%
    23:00 +12°C° 0 mm 1 mps 732 mmHg 73%

    12 April, Sunday

    Time Temperature Precipitation Wind Pressure Humidity
    00:00 +12°C° 0 mm 1 mps 732 mmHg 75%
    01:00 +11°C° 0 mm 1 mps 732 mmHg 77%
    02:00 +11°C° 0 mm 1 mps 732 mmHg 79%
    03:00 +11°C° 0 mm 1 mps 731 mmHg 80%
    04:00 +11°C° 0 mm 1 mps 731 mmHg 81%
    05:00 +11°C° 0 mm 1 mps 731 mmHg 81%
    06:00 +11°C° 0 mm 1 mps 731 mmHg 81%
    07:00 +12°C° 0 mm 1 mps 731 mmHg 81%
    08:00 +14°C° 0 mm 1 mps 730 mmHg 74%
    09:00 +16°C° 0 mm 2 mps 730 mmHg 66%
    10:00 +18°C° 0 mm 2 mps 730 mmHg 59%
    11:00 +19°C° 0 mm 2 mps 730 mmHg 55%
    12:00 +20°C° 0 mm 2 mps 729 mmHg 51%
    13:00 +21°C° 0 mm 3 mps 729 mmHg 47%
    14:00 +21°C° 0 mm 2 mps 728 mmHg 46%
    15:00 +21°C° 0 mm 2 mps 728 mmHg 45%
    16:00 +21°C° 0 mm 2 mps 727 mmHg 44%
    17:00 +20°C° 0.1 mm 1 mps 727 mmHg 51%
    18:00 +19°C° 0.1 mm 1 mps 727 mmHg 59%
    19:00 +16°C° 0.1 mm 1 mps 726 mmHg 66%
    20:00 +15°C° 0.3 mm 1 mps 727 mmHg 70%
    21:00 +14°C° 0.3 mm 1 mps 727 mmHg 74%
    22:00 +13°C° 0.3 mm 1 mps 727 mmHg 78%
    23:00 +12°C° 0.1 mm 1 mps 727 mmHg 79%

    13 April, Monday

    Time Temperature Precipitation Wind Pressure Humidity
    00:00 +12°C° 0.1 mm 1 mps 728 mmHg 80%
    01:00 +11°C° 0.1 mm 1 mps 728 mmHg 80%
    02:00 +10°C° 0 mm 2 mps 728 mmHg 80%
    03:00 +10°C° 0 mm 2 mps 728 mmHg 80%
    04:00 +9°C° 0 mm 2 mps 728 mmHg 80%
    05:00 +10°C° 0 mm 2 mps 728 mmHg 79%
    06:00 +11°C° 0 mm 1 mps 729 mmHg 79%
    07:00 +11°C° 0 mm 1 mps 729 mmHg 78%
    08:00 +13°C° 0 mm 1 mps 729 mmHg 71%
    09:00 +15°C° 0 mm 2 mps 730 mmHg 63%
    10:00 +16°C° 0 mm 2 mps 730 mmHg 56%
    11:00 +17°C° 0 mm 2 mps 730 mmHg 52%
    12:00 +18°C° 0 mm 2 mps 730 mmHg 49%
    13:00 +19°C° 0 mm 2 mps 731 mmHg 45%
    14:00 +19°C° 0 mm 2 mps 731 mmHg 46%
    15:00 +19°C° 0 mm 2 mps 731 mmHg 46%
    16:00 +20°C° 0 mm 2 mps 731 mmHg 47%
    17:00 +19°C° 0 mm 1 mps 731 mmHg 54%
    18:00 +16°C° 0 mm 1 mps 731 mmHg 62%
    19:00 +15°C° 0 mm 1 mps 731 mmHg 69%
    20:00 +14°C° 0.2 mm 1 mps 731 mmHg 73%
    21:00 +13°C° 0.2 mm 1 mps 732 mmHg 76%
    22:00 +11°C° 0.2 mm 0 mps 732 mmHg 80%
    23:00 +12°C° 0 mm 1 mps 733 mmHg 82%

    14 April, Tuesday

    Time Temperature Precipitation Wind Pressure Humidity
    00:00 +12°C° 0 mm 1 mps 733 mmHg 84%
    01:00 +11°C° 0 mm 1 mps 733 mmHg 86%
    02:00 +11°C° 0 mm 1 mps 733 mmHg 87%
    03:00 +10°C° 0 mm 1 mps 733 mmHg 89%
    04:00 +9°C° 0 mm 2 mps 733 mmHg 90%
    05:00 +9°C° 0 mm 2 mps 734 mmHg 89%
    06:00 +10°C° 0 mm 2 mps 734 mmHg 88%
    07:00 +10°C° 0 mm 2 mps 734 mmHg 87%
    08:00 +12°C° 0 mm 2 mps 734 mmHg 81%
    09:00 +13°C° 0 mm 3 mps 734 mmHg 76%
    10:00 +16°C° 0 mm 3 mps 734 mmHg 70%
    11:00 +17°C° 0 mm 4 mps 734 mmHg 65%
    12:00 +18°C° 0 mm 4 mps 734 mmHg 60%
    13:00 +19°C° 0 mm 4 mps 734 mmHg 55%
    14:00 +19°C° 0 mm 4 mps 734 mmHg 53%
    15:00 +19°C° 0 mm 4 mps 733 mmHg 52%
    16:00 +19°C° 0 mm 4 mps 733 mmHg 51%
    17:00 +18°C° 0 mm 4 mps 733 mmHg 57%
    18:00 +16°C° 0 mm 3 mps 732 mmHg 63%
    19:00 +13°C° 0 mm 3 mps 732 mmHg 68%
    20:00 +12°C° 0 mm 3 mps 732 mmHg 71%
    21:00 +11°C° 0 mm 3 mps 732 mmHg 73%
    22:00 +10°C° 0 mm 2 mps 732 mmHg 75%
    23:00 +9°C° 0 mm 2 mps 732 mmHg 76%
    Show more